ATLAS 5 CENTAUR DEB, 44038

Orbit data source: Space-Track

ATLAS 5 CENTAUR DEB, 44038 is space debris in HEO originally from a launch on Wed, 17 Sep 2014 UTC launched from the Air Force Eastern Test Range (AFETR). Debris objects in space refer to the collection of defunct objects orbiting the Earth. Examples of debris include non-operational satellites, rocket bodies, and fragments generated from explosions, collisions, or faulty payload assembly.

Loading next visibility...
Identifier
44038, 2014-055BY
Orbit
HEO
Country
Flag of USUS
Related business
Flag of USUnited Launch Alliance/Lockheed Martin (US)
Manufacturer
Unknown
Mission
Spacecraft
Bus & Motor
Unknown
Mass
Unknown
Launch date (UTC)
2014-09-17 (11 years ago)
Launch vehicle
Unknown
Launch site
Air Force Eastern Test Range (AFETR)
Object type
Payload
Rocket body
Debris
Shape & HBR
Unknown shape, 1.1 m
Radar Cross Section
Small (<0.1 m²)

Expand to show TLE details & history
Last TLE update: 1 day ago

TLE from 1 day ago
0 ATLAS 5 CENTAUR DEB
1 44038U 14055BY  25285.96643885 -.00000038  00000-0  00000-0 0  9997
2 44038  19.3560 211.7582 4625420  47.1392 343.4010  1.76612579 44906
Epoch: 2025-10-12T23:11Z
TLE epoch observation values (Epoch: 2025-10-12T23:11:40.316Z)
Latitude
0.00001°
Longitude
-157.92102°
Altitude
10,911.457 km
Speed
5.685 km/s
True Right ascension
14h 07m 05s
True Declination
0° 00' 00"
Sunlit
Object was in daylight at epoch
Visualization orbit readout
Latitude
Unknown
Longitude
Unknown
Altitude
Unknown
Speed
Unknown
Apparent Right ascension
Unknown
Apparent Declination
Unknown
Sunlit
N/A
Visualization observer readout
Local Sidereal Time
02:15:29
Azimuth
Unknown
Elevation
Unknown
Doppler factor
Unknown
Orbital elements
Apogee altitude
35,907.232 km
Perigee altitude
9,160.979 km
Semi-major axis
28,912.243 km
Eccentricity
0.46254
Inclination
19.356°
RAAN
211.7582°
Arg. of periapsis
47.1392°
True anomaly
312.67907°
Mean anomaly
343.401°
Eccentric anomaly
330.2507°
Mean motion
0.44149 °/min
Orbital period
815.42 mins
BSTAR
0
Loading maneuver chart data...
Computing Atmospheric mass density...

Documentation

Showing up to 5 results
|